Regional Weather Roundup
Issued by NWS

Home | Current Version | Previous Version | Graphics & Text | Print | Product List | Glossary On
Versions: 1 2 3 4 5 6 7 8 9 10 11 12 13 14 15 16 17 18 19 20 21 22 23 24 25 26 27
000
ASUS45 KBOU 190310
RWRCO

WEATHER ROUNDUP FOR COLORADO
NATIONAL WEATHER SERVICE DENVER/BOULDER CO
800 PM MST THU JAN 18 2018

NOTE: "FAIR" INDICATES FEW OR NO CLOUDS BELOW 12000 FEET WITH NO
SIGNIFICANT WEATHER AND/OR OBSTRUCTIONS TO VISIBILITY.

COZ001>005-013-030-031-190400-
...NORTHWEST COLORADO...

CITY           SKY/WX    TMP DP  RH WIND       PRES   REMARKS
CRAIG          FAIR      28  17  63 CALM      30.13F
HAYDEN         FAIR     N/A N/A N/A E13       30.15F
MEEKER         FAIR      30  23  75 E5        30.14S WCI  25
RABBIT EARS PA FAIR      30  14  51 S9        30.22S WCI  22
STEAMBOAT SPGS FAIR      23  16  75 CALM      30.16S
WALDEN         FAIR      28  12  50 SE3       30.16S
$$

COZ006>008-011-190400-
...WEST CENTRAL VALLEYS...

CITY           SKY/WX    TMP DP  RH WIND       PRES   REMARKS
GRAND JUNCTION FAIR      30  19  63 CALM      30.17S
MONTROSE       FAIR      28  17  63 SE7       30.20S WCI  21
EAGLE          FAIR      24  14  65 E6        30.23S WCI  17
RIFLE          FAIR      31  22  69 CALM      30.19S
DELTA          FAIR      36  17  46 NE5       30.19R
NUCLA          NOT AVBL
$$

COZ017>023-064>068-190400-
...SOUTHWEST COLORADO...

CITY           SKY/WX    TMP DP  RH WIND       PRES   REMARKS
DURANGO        FAIR      29  18  63 N9        30.21S WCI  20
CORTEZ         FAIR      28  19  69 E6        30.21S WCI  22
PAGOSA SPRINGS FAIR      27  17  64 CALM      30.22F
TELLURIDE      FAIR      34  13  42 E3        30.26R
WOLF CREEK PAS FAIR      32   7  34 S3        30.37S
$$

COZ009-010-012-014-032>034-037-058>063-190400-
...CENTRAL COLORADO...

CITY           SKY/WX    TMP DP  RH WIND       PRES   REMARKS
ASPEN          FAIR      24  14  65 S7        30.18S WCI  16
BUENA VISTA    FAIR      25   4  42 W5        30.15F WCI  19
COPPER MTN     NOT AVBL
BERTHOUD PASS  FAIR      27  14  59 N8        30.28F WCI  18
COTTONWOOD PAS   N/A     45   9  23 NW5       30.20F
GUNNISON       FAIR      19  10  68 CALM      30.25S
KREMMLING      FAIR      21  14  73 CALM      30.23S
LEADVILLE      FAIR      24   9  52 NE3       30.21F
MONARCH PASS   FAIR      28   7  40 W29       30.38S WCI  13
SALIDA         FAIR      39   5  23 CALM      30.20S
SUNLIGHT       FAIR      30   9  40 SW10      30.29S WCI  21
WILKERSON PASS FAIR      36   0  21 W8        30.26F
$$

COZ069>075-190400-
...SAN LUIS VALLEY/SANGRE DE CRISTO MOUNTAINS...

CITY           SKY/WX    TMP DP  RH WIND       PRES   REMARKS
ALAMOSA        FAIR      21  -2  36 W3        30.19S
DEL NORTE      FAIR      25   0  32 W12       30.21S WCI  15
LA VETA PASS   FAIR      28   3  34 SW25        N/A  WCI  14
SAGUACHE       FAIR      27   3  36 N6        30.21S WCI  20
$$

COZ035-036-038>040-190400-
...NORTHERN COLORADO FRONT RANGE...

CITY           SKY/WX    TMP DP  RH WIND       PRES   REMARKS
DENVER INTL AP MOCLDY    38  16  40 S8        29.95F
DMNS CITY PARK NOT AVBL
AURORA         MOCLDY    45  12  26 S12       29.97S
FRONT RANGE AP MOCLDY    37  21  52 S12       29.96F
ERIE MUNI ARPT FAIR      32  22  65 CALM      30.01S
BOULDER MUN AP FAIR      46  19  34 W6        29.95S
CENTENNIAL     MOCLDY    41   9  26 SE8       29.97F
BROOMFIELD     MOCLDY    52  16  24 W8        29.97
FORT COLLINS   FAIR      38  24  57 N6        29.95S
LONGMONT       FAIR      39  21  47 W5        29.96F
$$

COZ041-046-047-076>085-087-088-190400-
...PIKES PEAK/PALMER DIVIDE AND SOUTHERN FOOTHILLS...

CITY           SKY/WX    TMP DP  RH WIND       PRES   REMARKS
COLO. SPRINGS  FAIR      35   7  31 N7        30.04F WCI  29
A. F. ACADEMY  FAIR      26   7  43 N9        30.04F WCI  17
SCHRIEVER AFB  FAIR      39   6  24 CALM      30.04F
CHEYENNE MTN   FAIR      44   8  22 CALM      30.00F
ELLICOTT         N/A    N/A N/A N/A NE3       30.02F
FALCON         FAIR      36   4  26 W7        30.06F
FORT CARSON    CLEAR     35  10  35 N8        30.02F WCI  29
LIMON          FAIR      26  14  60 N9        29.99F WCI  17
MONUMENT HILL  FAIR      36   9  32 S10       30.05F
CANON CITY     FAIR      36  10  35 W6        30.02S
WALSENBURG     FAIR      50   9  18 SW12G23   30.03F
TRINIDAD       FAIR      36  11  35 W8        30.04S
$$

COZ042>045-048>051-090-091-190400-
...NORTHEAST COLORADO...

CITY           SKY/WX    TMP DP  RH WIND       PRES   REMARKS
GREELEY ARPT   FAIR      29  17  61 N3        29.95F
AKRON          FAIR      45  15  30 SW9       29.93F
BURLINGTON     FAIR      42  15  33 SW10      29.95F
WRAY           FAIR      37  19  48 W6        29.91F
YUMA           FAIR      32  14  47 W9        29.92S WCI  24
STERLING       FAIR      34  21  60 SW8       29.90F WCI  27
HOLYOKE        FAIR      37  25  60 W8        29.91S
FORT MORGAN    FAIR      38  15  38 W5        29.93F
$$

COZ086-089-092>099-190400-
...SOUTHEAST COLORADO...

CITY           SKY/WX    TMP DP  RH WIND       PRES   REMARKS
PUEBLO         FAIR      36  12  37 NE5       29.98F
LA JUNTA       FAIR      43  10  26 CALM      29.98S
LAMAR          FAIR      27   6  41 S8        29.96F WCI  19
SPRINGFIELD      N/A     26   2  35 CALM      29.99F
$$




USA.gov is the U.S. government's official web portal to all federal, state and local government web resources and services.